Flag for Brazil Weather past 2 weeks in Montes Claros, Minas Gerais, Brazil

Now
70 °F

Passing clouds.


Feels Like: 70 °F
Forecast: 70 / 93 °F
Wind: 3 mph from Southeast

Location: Belo Horizonte Airport

Current Time: Mar 31, 2015 at 6:49:19 AM

Latest Report: Mar 31, 2015 at 6:00 AM


Visibility: N/A

Pressure: 30.01 "Hg

Humidity: 83%

Dew point: 64 °F

Location of Montes ClarosLocation

Historic Weather in Montes Claros — Graph

°F

Montes Claros temperature yesterday

Maximum temperature yesterday: 86 °F (at 12:00 PM)
Minimum temperature yesterday: 70 °F (at 6:00 AM)
Average temperature yesterday: 76 °F

Past Weeks' High & Low Weather Summary

 TemperatureHumidityPressure
High86 °F (Mar 26, 3:00 PM)100% (Mar 17, 11:00 AM)30.21 "Hg (Mar 17, 11:00 AM)
Low32 °F (Mar 24, 1:00 AM)39% (Mar 18, 4:00 PM)29.92 "Hg (Mar 20, 4:00 PM)
Average74 °F70%30.06 "Hg
* Reported Mar 16 6:00 AM — Mar 31 6:00 AM, Montes Claros, Weather by CustomWeather, © 2015

Note: Actual official high and low records may vary slightly from our data, if they occured in-between our weather recording intervals... More about our weather records

Advertising

Montes Claros weather history for previous 24 hours

 ConditionsComfort  
Time TempWeatherWind HumidityBarometerVisibility
6:00 AM
Tue, Mar 31
70 °FPassing clouds.3 mph83%30.01 "HgN/A
5:00 AM68 °FPassing clouds.5 mph88%30.01 "HgN/A
4:00 AM70 °FPassing clouds.3 mph83%30.01 "HgN/A
3:00 AM70 °FPassing clouds.6 mph83%30.04 "HgN/A
2:00 AM70 °FPassing clouds.5 mph83%30.04 "HgN/A
1:00 AM70 °FPartly cloudy.5 mph83%30.07 "HgN/A
12:00 AM72 °FPassing clouds.7 mph83%30.07 "HgN/A
11:00 PM
Mon, Mar 30
72 °FPartly cloudy.8 mph88%30.07 "HgN/A
10:00 PM73 °FPartly cloudy.6 mph83%30.07 "HgN/A
9:00 PM73 °FClear.2 mph83%30.07 "Hg10 mi
8:00 PM73 °FPassing clouds.1 mph83%30.04 "HgN/A
7:00 PM73 °FPassing clouds.5 mph83%30.01 "HgN/A
6:00 PM75 °FPartly cloudy.7 mph78%30.01 "HgN/A
5:00 PM75 °FPartly sunny.6 mph78%29.98 "HgN/A
4:00 PM75 °FScattered showers. Partly sunny.7 mph83%29.98 "Hg4 mi
3:00 PM73 °FThunderstorms. Partly sunny.13 mph83%30.01 "Hg2 mi
2:00 PM86 °FThunderstorms. Partly sunny.9 mph46%29.98 "Hg5 mi
1:00 PM84 °FScattered clouds.8 mph51%30.01 "HgN/A
12:00 PM86 °FScattered clouds.10 mph49%30.04 "HgN/A
11:00 AM84 °FPassing clouds.8 mph51%30.07 "HgN/A
10:00 AM81 °FPassing clouds.8 mph62%30.07 "HgN/A
9:00 AM79 °FSunny.7 mph61%30.07 "Hg10 mi
8:00 AM75 °FSunny.3 mph78%30.07 "Hg10 mi
7:00 AM72 °FSunny.No wind88%30.07 "Hg10 mi
6:00 AM70 °FClear.2 mph94%30.04 "Hg10 mi
Weather by CustomWeather, © 2015

See weather overviewHow to use our weather pages